Avoca, PA

3:10 AM EDT on September 16, 2019 (GMT -0400)
Wilkes-Barre-Scranton International

Weather History for KAVP - August, 2019

Change the Weather History Date:

Sunday, August 25, 2019

  Actual Average Record
Temperature  
Mean Temperature 66 °F 69 °F  
Max Temperature 76 °F 79 °F 95 °F (1909)
Min Temperature 56 °F 59 °F 38 °F (1940)
Degree Days  
Heating Degree Days 0 1  
Month to date heating degree days 1 8  
Since 1 June heating degree days 33 70  
Since 1 July heating degree days 1 16  
Cooling Degree Days 1 4  
Month to date cooling degree days 212 139  
Year to date cooling degree days 726 499  
Since 1 June cooling degree days 676 462  
Growing Degree Days 15 (Base 50)    
Moisture  
Dew Point 54 °F    
Average Humidity 70    
Maximum Humidity 93    
Minimum Humidity 46    
Precipitation  
Precipitation 0.00 in 0.10 in 1.82 in (1941)
Month to date precipitation 5.45 2.79  
Year to date precipitation 37.53 24.41  
Sea Level Pressure  
Sea Level Pressure 30.25 in    
Wind  
Wind Speed 6 mph (East)    
Max Wind Speed 14 mph    
Max Gust Speed 20 mph    
Visibility 10 miles    
Events      
T = Trace of Precipitation, MM = Missing Value Source: NWS Daily Summary

Daily Weather History Graph

Daily Weather History Graph

Search for Another Location

Airport or City:

Astronomy

Aug. 25, 2019 Rise Set
Actual Time 6:21 AM EDT 7:47 PM EDT
Civil Twilight 5:53 AM EDT 8:16 PM EDT
Nautical Twilight 5:18 AM EDT 8:50 PM EDT
Astronomical Twilight 4:41 AM EDT 9:27 PM EDT
Moon 12:53 AM EDT (8/25) 4:07 PM EDT (8/25)
Length of Visible Light 14h 23m
Length of Day
13h 25m
Waning Crescent, 29% of the Moon is Illuminated
Aug 25
Waning Crescent
Aug 30
New
Sep 5
First Quarter
Sep 14
Full
Sep 21
Last Quarter

Hourly Weather History & Observations

Time (EDT) Temp. Dew Point Humidity Pressure Visibility Wind Dir Wind Speed Gust Speed Precip Events Conditions
12:54 AM 61.0 °F 55.0 °F 81% 30.26 in 10.0 mi ESE 3.5 mph - N/A   Overcast
1:54 AM 60.1 °F 55.0 °F 83% 30.25 in 10.0 mi ESE 4.6 mph - N/A   Mostly Cloudy
2:54 AM 57.9 °F 54.0 °F 87% 30.25 in 10.0 mi ESE 5.8 mph - N/A   Clear
4:54 AM 55.9 °F 53.1 °F 90% 30.25 in 10.0 mi East 6.9 mph - N/A   Clear
5:54 AM 57.0 °F 53.1 °F 87% 30.27 in 10.0 mi East 5.8 mph - N/A   Mostly Cloudy
6:54 AM 57.9 °F 54.0 °F 87% 30.29 in 10.0 mi Calm Calm - N/A   Overcast
7:54 AM 60.1 °F 55.0 °F 83% 30.31 in 10.0 mi Calm Calm - N/A   Overcast
8:54 AM 62.1 °F 55.9 °F 80% 30.32 in 10.0 mi Calm Calm - N/A   Overcast
9:54 AM 68.0 °F 57.0 °F 68% 30.31 in 10.0 mi NE 6.9 mph - N/A   Scattered Clouds
10:54 AM 70.0 °F 55.0 °F 59% 30.30 in 10.0 mi NE 11.5 mph - N/A   Mostly Cloudy
11:54 AM 71.1 °F 54.0 °F 55% 30.28 in 10.0 mi NE 8.1 mph - N/A   Mostly Cloudy
12:54 PM 73.0 °F 54.0 °F 51% 30.26 in 10.0 mi NNE 12.7 mph 17.3 mph N/A   Overcast
1:54 PM 75.9 °F 53.1 °F 45% 30.24 in 10.0 mi NE 9.2 mph - N/A   Partly Cloudy
2:54 PM 72.0 °F 52.0 °F 49% 30.23 in 10.0 mi ESE 5.8 mph - N/A   Mostly Cloudy
3:54 PM 75.0 °F 53.1 °F 46% 30.21 in 10.0 mi Variable 5.8 mph - N/A   Partly Cloudy
4:54 PM 73.9 °F 51.1 °F 45% 30.22 in 10.0 mi East 8.1 mph - N/A   Scattered Clouds
5:54 PM 73.0 °F 52.0 °F 48% 30.22 in 10.0 mi ESE 3.5 mph - N/A   Mostly Cloudy
6:54 PM 71.1 °F 53.1 °F 53% 30.22 in 10.0 mi ESE 3.5 mph - N/A   Partly Cloudy
7:54 PM 66.9 °F 54.0 °F 63% 30.22 in 10.0 mi East 3.5 mph - N/A   Clear
8:54 PM 64.9 °F 53.1 °F 65% 30.24 in 10.0 mi East 6.9 mph - N/A   Clear
9:54 PM 62.1 °F 54.0 °F 75% 30.24 in 10.0 mi ENE 5.8 mph - N/A   Clear
10:54 PM 61.0 °F 54.0 °F 78% 30.23 in 10.0 mi East 5.8 mph - N/A   Clear
11:54 PM 61.0 °F 54.0 °F 78% 30.23 in 10.0 mi ENE 5.8 mph - N/A   Clear